Regional Weather Roundup
Issued by NWS

Home | Current Version | Previous Version | Graphics & Text | Print | Product List | Glossary On
Versions: 1 2 3 4 5 6 7 8 9 10 11 12 13 14 15 16 17 18 19 20 21 22 23 24 25 26 27 28 29 30 31 32 33 34 35 36 37 38 39 40 41 42 43 44 45 46 47 48 49 50
000
ASUS44 KMEG 271910
RWRTN
TENNESSEE HOURLY STATE WEATHER ROUNDUP
NATIONAL WEATHER SERVICE MEMPHIS TN
200 PM CDT WED AUG 27 2014

TNZ002-004-019-021-049-052-054-088>092-272000-
WEST TENNESSEE

CITY           SKY/WX    TMP DP  RH WIND       PRES   REMARKS
MEMPHIS INTL   PTSUNNY   92  66  42 E9        30.06F HX  94
NWS MEMPHIS      N/A     90 N/A N/A MISG        N/A
JACKSON        PTSUNNY   89  71  55 E5        30.08F HX  95
DYERSBURG      MOSUNNY   88  68  51 CALM      30.07F HX  91
UNION CITY     SUNNY     90  72  55 VRB3      30.06F HX  96
PARIS          MOSUNNY   88  70  55 CALM      30.08F HX  92
HUNTINGDON     MOSUNNY   88  71  56 CALM      30.08F HX  93
LEXINGTON      PTSUNNY   88  66  48 CALM      30.08F HX  90
SAVANNAH       MOSUNNY   91  68  46 VRB3      30.09F HX  95
$$

TNZ008-025-027-028-033-062-065-066-272000-
NORTH MIDDLE TENNESSEE

CITY           SKY/WX    TMP DP  RH WIND       PRES   REMARKS
NASHVILLE      PTSUNNY   89  70  53 E6        30.08F HX  94
DICKSON        MOSUNNY   88  72  58 N5        30.09F HX  94
PORTLAND       MOSUNNY   88  72  58 NE5       30.09F HX  94
CLARKSVILLE    SUNNY     90  72  55 CALM      30.07F HX  97
LEBANON        MOSUNNY   88  69  53 N8        30.08  HX  92
SMYRNA         MOSUNNY   92  70  48 E10       30.08F HX  97
MURFREESBORO   MOSUNNY   88  67  49 NE9       30.08F HX  91
COOKEVILLE     MOSUNNY   90  68  48 N5        30.10F HX  93
GALLATIN       MOSUNNY   91  72  53 NE6       30.09F HX  98
CROSSVILLE     MOSUNNY   84  62  47 VRB7      30.15F
$$

TNZ061-075-076-078-094-096-097-272000-
SOUTH MIDDLE TENNESSEE

CITY           SKY/WX    TMP DP  RH WIND       PRES   REMARKS
LEWISBURG      MOSUNNY   89  71  55 NW5       30.08F HX  95
FAYETTEVILLE   SUNNY     84  66  54 E6        30.10F
TULLAHOMA      MOSUNNY   88  64  45 VRB6      30.10F
WINCHESTER       N/A     86  66  51 VRB3      30.09F
MCMINNVILLE    SUNNY     88  66  48 NE3       30.10F HX  90
COLUMBIA       MOSUNNY   90  72  55 N5        30.08F HX  96
SHELBYVILLE    MOSUNNY   90  73  58 N8        30.09F HX  98
$$

TNZ017-018-042-046-047-272000-
NORTHEAST TENNESSEE

CITY           SKY/WX    TMP DP  RH WIND       PRES   REMARKS
TRI CITIES     MOSUNNY   85  58  39 CALM      30.11F
ELIZABETHTON   CLEAR     82  57  42 W6        30.11F
$$

TNZ012-013-036-069-073-074-272000-
CENTRAL EAST TENNESSEE

CITY           SKY/WX    TMP DP  RH WIND       PRES   REMARKS
KNOXVILLE      MOSUNNY   85  63  47 N8        30.09F
OAK RIDGE      SUNNY     87  63  44 VRB5      30.11F
GATLINBURG     PTCLDY    84  59  42 CALM      30.09F
MORRISTOWN       N/A     82  63  51 VRB7      30.12F
$$

TNZ083-085-099-272000-
SOUTHEAST TENNESSEE

CITY           SKY/WX    TMP DP  RH WIND       PRES   REMARKS
CHATTANOOGA    MOSUNNY   89  63  41 NE7       30.08F HX  90
$$

SKY/WX REPORTED AS FAIR MEANS FEW OR NO CLOUDS BELOW
12 THOUSAND FEET.



USA.gov is the U.S. government's official web portal to all federal, state and local government web resources and services.